Location: Morlupo
(42.1333°N, 12.5000°E)
Time: 16:33:56
(UTC+00:00)

Nadezhda 4 Rocket - Pass Details

Date: 18 September 2020
Orbit: 949 x 993 km, 82.9° (Epoch: 25 October)

Event Time Altitude Azimuth Distance (km) Brightness Sun altitude
Rises 18:52:08 0° 354° (N) 3,635 7.3 -18.7°
Reaches altitude 10° 18:54:39 10° 357° (N) 2,684 6.6 -19.1°
Maximum altitude 19:00:46 71° 81° (E) 1,005 3.8 -20.2°
Enters shadow 19:04:39 23° 161° (SSE) 1,878 5.1 -20.8°
